Jordan Escarpment

*Note: All times are displayed in the local standard time of the station location.
**Rain - Equipment is designed to accurately record liquid precipitation; under conditions when precipitation is not in liquid form, the data displayed may not properly reflect rainfall values.

Date Max Temp
(°C)
Min Temp
(°C)
Avg Temp
(°C)
Rain (mm) Avg RH (%)
Sat, Feb 17, 2018 -1.5 -7.1 -3.6 0.0 75.5
Fri, Feb 16, 2018 4.3 -6.5 -0.5 0.0 79.2
Thu, Feb 15, 2018 8.1 2.2 5.5 0.6 96.2
Wed, Feb 14, 2018 4.5 -4.2 2.2 7.8 77.4
Tue, Feb 13, 2018 -1.8 -16.8 -8.5 0.2 76.1
Mon, Feb 12, 2018 -2.5 -11.8 -5.7 0.2 73.4
Sun, Feb 11, 2018 0.7 -4.2 -2.1 3.4 92.1
DateTime Avg Temp (°C) Rain (mm) RH (%)
Sun, Feb 18, 2018 04:00 -2.7 0.0 89.0
Sun, Feb 18, 2018 03:00 -2.3 0.0 87.0
Sun, Feb 18, 2018 02:00 -2.2 0.0 88.0
Sun, Feb 18, 2018 01:00 -2.2 0.0 89.3
Sun, Feb 18, 2018 00:00 -2.0 0.0 87.3
Sat, Feb 17, 2018 23:00 -1.8 0.0 83.8
Sat, Feb 17, 2018 22:00 -2.0 0.0 76.5
Sat, Feb 17, 2018 21:00 -2.1 0.0 74.8
Sat, Feb 17, 2018 20:00 -2.2 0.0 72.8
Sat, Feb 17, 2018 19:00 -2.1 0.0 68.8
Sat, Feb 17, 2018 18:00 -2.0 0.0 64.8
Sat, Feb 17, 2018 17:00 -1.9 0.0 62.5
Sat, Feb 17, 2018 16:00 -1.7 0.0 65.0
Sat, Feb 17, 2018 15:00 -1.6 0.0 63.8
Sat, Feb 17, 2018 14:00 -1.6 0.0 65.3
Sat, Feb 17, 2018 13:00 -1.8 0.0 65.8
Sat, Feb 17, 2018 12:00 -1.8 0.0 66.8
Sat, Feb 17, 2018 11:00 -2.2 0.0 68.5
Sat, Feb 17, 2018 10:00 -3.1 0.0 73.3
Sat, Feb 17, 2018 09:00 -4.7 0.0 78.5
Sat, Feb 17, 2018 08:00 -6.4 0.0 83.0
Sat, Feb 17, 2018 07:00 -6.7 0.0 84.8
Sat, Feb 17, 2018 06:00 -6.4 0.0 85.8
Sat, Feb 17, 2018 05:00 -6.2 0.0 86.0
Sat, Feb 17, 2018 04:00 -6.2 0.0 84.8
Sat, Feb 17, 2018 03:00 -6.8 0.0 85.3
Sat, Feb 17, 2018 02:00 -6.7 0.0 83.5
Sat, Feb 17, 2018 01:00 -6.4 0.0 82.0
Sat, Feb 17, 2018 00:00 -6.3 0.0 82.0
Fri, Feb 16, 2018 23:00 -6.0 0.0 78.5
Fri, Feb 16, 2018 22:00 -5.8 0.0 75.3
Fri, Feb 16, 2018 21:00 -4.9 0.0 70.0
Fri, Feb 16, 2018 20:00 -4.2 0.0 64.5
Fri, Feb 16, 2018 19:00 -3.8 0.0 62.5
Fri, Feb 16, 2018 18:00 -3.1 0.0 60.5
Fri, Feb 16, 2018 17:00 -1.6 0.0 60.3
Fri, Feb 16, 2018 16:00 -0.8 0.0 63.3
Fri, Feb 16, 2018 15:00 0.3 0.0 61.8
Fri, Feb 16, 2018 14:00 0.7 0.0 62.0
Fri, Feb 16, 2018 13:00 1.1 0.0 67.5
Fri, Feb 16, 2018 12:00 1.3 0.0 75.5
Fri, Feb 16, 2018 11:00 1.0 0.0 85.0
Fri, Feb 16, 2018 10:00 1.1 0.0 84.5
Fri, Feb 16, 2018 09:00 0.7 0.0 86.0
Fri, Feb 16, 2018 08:00 0.8 0.0 89.3
Fri, Feb 16, 2018 07:00 1.5 0.0 89.3
Fri, Feb 16, 2018 06:00 2.0 0.0 92.0
Fri, Feb 16, 2018 05:00 1.8 0.0 93.5


asterix Register now to access more data! asterix